{"data":{"norad_id":49421,"intl_designator":"2021-104P","name":"STARLINK-3112","alt_names":[],"object_type":"PAYLOAD","status":"ACTIVE","operator":null,"country":"US","launch_date":"2021-11-13","launch_site_code":"AFETR","launch_vehicle":null,"mission":null,"orbit_class":"UNKNOWN","rcs_meters":null,"size_class":null,"mass_kg":null,"dimensions":null,"purposes":["comms"],"wikipedia_slug":null,"has_3d_model":false,"image_url":null,"decayed_at":null,"tle_current":{"epoch":"2026-09-20T01:27:58.289184Z","epoch_age_seconds":79267,"freshness":"FRESH","line1":"1 49421U 21104P   26263.06109131  .00000974  00000+0  43124-4 0  9995","line2":"2 49421  53.1599  62.8606 0001120  80.7916 279.3212 15.31705379268156","mean_motion":15.31705379,"eccentricity":0.000112,"inclination_deg":53.1599,"raan_deg":62.8606,"arg_perigee_deg":80.7916,"mean_anomaly_deg":279.3212,"bstar":4.3124e-5,"rev_number":26815,"period_min":94.012857808212,"perigee_km":469.95688832587,"apogee_km":471.49103318108,"semimajor_km":6848.8609607535,"source":"CELESTRAK","updated_at":"2026-09-20T09:00:39.257500Z"}}}